Home   Weather   Rostock   Past weeks

Flag for Germany Past Weather in Rostock, Mecklenburg-Western Pomerania, Germany — Yesterday and Last 2 Weeks

Now
34 °F

Chilly.


Feels Like: 25 °F
Forecast: 40 / 47 °F
Wind: 13 mph from West

Location: Laage

Current Time: Feb 25, 2017 at 3:18:22 am

Latest Report: Feb 25, 2017 at 2:20 am


Visibility: N/A

Pressure: 29.95 "Hg

Humidity: 87%

Dew Point: 30 °F

Location of RostockLocation

Past Weather in Rostock — Graph

°F

Rostock Temperature Yesterday

Maximum temperature yesterday: 41 °F (at 12:20 am)
Minimum temperature yesterday: 32 °F (at 8:30 am)
Average temperature yesterday: 36 °F

High & Low Weather Summary for the Past Weeks

 TemperatureHumidityPressure
High50 °F (Feb 16, 12:56 pm)100% (Feb 17, 10:20 am)30.69 "Hg (Feb 17, 10:20 am)
Low19 °F (Feb 10, 1:20 am)46% (Feb 15, 2:20 pm)28.94 "Hg (Feb 23, 10:20 pm)
Average36 °F82%30.05 "Hg
* Reported Feb 10 1:20 am — Feb 25 1:20 am, Rostock, Weather by CustomWeather, © 2017

Note: Actual official high and low records may vary slightly from our data, if they occured in-between our weather recording intervals... More about our weather records

Advertising

Rostock Weather History for the Previous 24 Hours

Scroll right to see more
 ConditionsComfort  
Time TempWeatherWind HumidityBarometerVisibility
1:20 am
Sat, Feb 25
34 °FPassing clouds.13 mph87%29.95 "HgN/A
12:20 am34 °FPassing clouds.9 mph87%29.92 "HgN/A
11:20 pm
Fri, Feb 24
34 °FChilly.10 mph87%29.89 "HgN/A
10:20 pm34 °FChilly.14 mph87%29.89 "HgN/A
9:20 pm34 °FPassing clouds.12 mph81%29.86 "HgN/A
8:20 pm34 °FPassing clouds.13 mph87%29.86 "HgN/A
7:20 pm34 °FPassing clouds.12 mph87%29.83 "HgN/A
6:20 pm34 °FPassing clouds.12 mph87%29.83 "HgN/A
5:39 pm36 °FScattered showers. Passing clouds.15 mph81%29.80 "Hg5 mi
5:33 pm36 °FScattered showers. Scattered clouds.15 mph81%29.80 "Hg3 mi
4:20 pm39 °FPassing clouds.15 mph52%29.77 "HgN/A
3:20 pm41 °FPassing clouds.18 mph53%29.77 "HgN/A
2:30 pm39 °FPassing clouds.18 mph61%29.74 "HgN/A
1:20 pm39 °FPassing clouds.17 mph65%29.71 "HgN/A
12:20 pm39 °FScattered clouds.18 mph70%29.68 "HgN/A
11:20 am37 °FPartly sunny.15 mph75%29.65 "HgN/A
10:20 am34 °FPartly sunny.9 mph81%29.59 "HgN/A
10:01 am34 °FBroken clouds.7 mph81%29.59 "HgN/A
9:30 am32 °FPartly sunny.10 mph93%29.56 "HgN/A
8:45 am32 °FLight snow. Ice fog.14 mph87%29.50 "Hg1 mi
8:30 am32 °FLight snow. Ice fog.14 mph93%29.47 "Hg2 mi
7:20 am34 °FLight rain. Fog.18 mph87%29.39 "Hg1 mi
7:04 am34 °FLight rain. Fog.20 mph87%29.36 "Hg2 mi
6:33 am34 °FLight rain. Fog.22 mph93%29.30 "Hg3 mi
6:20 am34 °FLight rain. Passing clouds.21 mph93%29.27 "Hg5 mi
6:10 am34 °FLight rain. Passing clouds.24 mph93%29.24 "Hg4 mi
5:35 am36 °FPassing clouds.26 mph87%29.18 "Hg6 mi
5:20 am36 °FDrizzle. Fog.25 mph93%29.15 "Hg3 mi
4:20 am36 °FPassing clouds.24 mph93%29.09 "HgN/A
3:47 am41 °FLight rain. Fog.17 mph93%29.03 "Hg3 mi
3:20 am41 °FPassing clouds.14 mph93%29.03 "HgN/A
Weather by CustomWeather, © 2017

See weather overviewHow to use our weather pages